Regional Weather Roundup
Issued by NWS

Home | Current Version | Previous Version | Text Only | Print | Product List | Glossary On
Versions: 1 2 3 4 5 6 7 8 9 10 11 12 13 14 15 16 17 18 19 20 21 22 23 24 25 26 27 28 29 30 31 32 33 34 35 36 37 38 39 40 41 42 43 44 45 46 47 48 49 50
000
ASUS45 KPSR 201110
RWRAZ

ARIZONA REGIONAL HOURLY WEATHER ROUNDUP
NATIONAL WEATHER SERVICE PHOENIX AZ
400 AM MST SUN APR 20 2014

NOTE: FAIR INDICATES FEW OR NO CLOUDS BELOW 12,000 FEET WITH NO
SIGNIFICANT WEATHER AND/OR OBSTRUCTIONS TO VISIBILITY.

AZZ001>003-036-201200-
NORTHWEST ARIZONA

CITY           SKY/WX    TMP DP  RH WIND       PRES   REMARKS
BULLHEAD CITY  CLEAR     68  39  34 SE5       29.95R
KINGMAN        CLEAR     57  38  48 SE9       30.06S
$$

AZZ004>008-015-016-018-201200-
NORTH CENTRAL ARIZONA

CITY           SKY/WX    TMP DP  RH WIND       PRES   REMARKS
GRAND CANYON   CLEAR     29  28  96 CALM      30.20S
WILLIAMS       CLEAR     34  32  93 SE6       30.27S WCI  29
PRESCOTT       CLEAR     47  35  63 S9        30.14S
FLAGSTAFF      CLEAR     33  29  85 CALM      30.21S
PAYSON         PTCLDY    48  39  71 CALM      30.17S
PAGE           CLEAR     55  35  47 SW3       30.08R
$$

AZZ009>014-017-201200-
NORTHEAST ARIZONA

CITY           SKY/WX    TMP DP  RH WIND       PRES   REMARKS
WINSLOW        CLEAR     42  36  79 SE7       30.14S
SAINT JOHNS    CLEAR     42  35  76 S5        30.16R
WINDOW ROCK    PTCLDY    37  33  85 CALM      30.17F
SHOW LOW       CLEAR     37  32  81 S6        30.21S WCI  33
$$

AZZ023-201200-
GREATER PHOENIX AREA

CITY           SKY/WX    TMP DP  RH WIND       PRES   REMARKS
PHOENIX        CLEAR     68  43  40 E9        29.97S
BUCKEYE          N/A     59  36  41 N7        29.98S
LUKE AFB       NOT AVBL
DEER VALLEY    CLEAR     67  41  38 E8        29.98S
SCOTTSDALE     CLEAR     67  42  40 SE3       30.01R
MESA-GATEWAY   CLEAR     61  43  51 SE8       30.01F
$$

AZZ027-028-201200-
SOUTHWEST MARICOPA COUNTY AND PINAL COUNTY

CITY           SKY/WX    TMP DP  RH WIND       PRES   REMARKS
CASA GRANDE    CLEAR     57  39  51 CALM      30.01S
$$

AZZ503-504-507>509-201200-
SOUTHEAST ARIZONA

CITY           SKY/WX    TMP DP  RH WIND       PRES   REMARKS
TUCSON         CLEAR     58  43  57 SE8       30.07S
DAVIS-MONTHAN  CLEAR     55  41  59 SE7       30.06S
NOGALES        CLEAR     48  38  68 CALM      30.10S
SIERRA VISTA   CLEAR     50  37  61 MISG      30.12F
DOUGLAS        CLEAR     42  38  85 VRB3      30.12S
SAFFORD        CLEAR     49  38  65 S3        30.07S
$$

AZZ020-021-025-026-031-201200-
SOUTHWEST ARIZONA

CITY           SKY/WX    TMP DP  RH WIND       PRES   REMARKS
YUMA           CLEAR     69  46  43 CALM      29.94R
$$

CAZ031-033-041-043-047-048-061-201200-
SOUTHERN CALIFORNIA

CITY           SKY/WX    TMP DP  RH WIND       PRES   REMARKS
DOWNTOWN L.A.  CLEAR     60  54  80 CALM      30.04R
L.A. AIRPORT   CLEAR     58  54  86 E5        30.04S
SAN DIEGO      CLOUDY    62  55  77 CALM      30.05S
BURBANK        CLEAR     59  51  75 SE3       30.03S
ONTARIO        CLEAR     58  52  80 SW3       30.04R
RIVERSIDE      CLEAR     57  51  80 CALM      30.04S
PALM SPRINGS   CLEAR     70  50  49 CALM      29.96R
EL CENTRO NAS  CLEAR     66  48  52 SE7       29.92R
IMPERIAL       CLEAR     67  50  54 S6        29.92R
BLYTHE         CLEAR     73  44  35 S9        29.93S
NEEDLES        CLEAR     71  38  29 W6        29.95R
$$

NVZ020-UTZ003-201200-
SOUTHERN NEVADA-UTAH

CITY           SKY/WX    TMP DP  RH WIND       PRES   REMARKS
LAS VEGAS      PTCLDY    68  33  27 SW7       29.93S
SALT LAKE CITY MOCLDY    56  37  49 S7        30.02R
$$

NMZ009-TXZ055-201200-
NEW MEXICO-WEST TEXAS

CITY           SKY/WX    TMP DP  RH WIND       PRES   REMARKS
ALBUQUERQUE    PTCLDY    48  44  86 SE5       30.11F
EL PASO        PTCLDY    50  48  93 SE3       30.09S
$$


........................KEY........................
SKY/WX - SKY CONDITION/WEATHER
TMP    - TEMPERATURE IN FAHRENHEIT
DP     - DEW POINT IN FAHRENHEIT
RH     - RELATIVE HUMIDITY IN PERCENT
WIND   - DIRECTION AND SPEED IN MILES PER HOUR (MPH)
VRB    - VARIABLE WIND DIRECTION
PRES   - MEAN SEA LEVEL PRESSURE IN INCHES OF MERCURY
         F - FALLING PRESSURE   R - RISING PRESSURE
         S - STEADY PRESSURE
VSB    - VISIBILITY IN MILES
HX     - HEAT INDEX IN FAHRENHEIT
WCI    - WIND CHILL INDEX IN FAHRENHEIT
TC     - TEMPERATURE IN CELSIUS WHICH IS ALSO KNOWN AS
         TEMPERATURE IN CENTIGRADE
AFB    - AIR FORCE BASE
         LUKE AFB IS LUKE AIR FORCE BASE
         DAVIS-MONTHAN IS DAVIS-MONTHAN AIR FORCE BASE
NAS    - NAVAL AIR STATION
         EL CENTRO NAS IS EL CENTRO NAVAL AIR STATION
N/A    - NOT AVAILABLE



USA.gov is the U.S. government's official web portal to all federal, state and local government web resources and services.